2023-060B (56371 NORAD) Tracking and Keplerian Element Data

This shows tracking and keplerian element data for the satellite.

Feedback or suggestion? Click here.




ElementValue
Catalog56371
Name2023-060B
Epoch Orbit6
Epoch Day127.10232002
Epoch Year2023
RAAN47.5935
Inclination0.0622
Eccentricity0.0010044
Argument of Perigee182.8735
Mean Anonmoly258.7012
Mean Motion1.04744861
Decay Rate-9.7E-07
L11 56371U 23060B 23127.10232002 -.00000097 00000+0 00000+0 0 9993
L22 56371 0.0622 47.5935 0010044 182.8735 258.7012 1.04744861 66



Live tracking and technical data element details for 2023-060B (NORAD 56371). 2023-060B can be tracked NOW for your location showing map with azimuth and elevation plus other details from your city location.







IsCatalogInMostPopularTable: catalog: 56371, numindb: 9
Update: records affected: 1



GetName: 56371 2023-060B

Hit Count: updated at: Wed, 07 Jun 2023 09:52:47 GMT